Regional Weather Roundup
Issued by NWS

Home | Current Version | Previous Version | Text Only | Print | Product List | Glossary On
Versions: 1 2 3 4 5 6 7 8 9 10 11 12 13 14 15 16 17 18 19 20 21 22 23 24 25 26 27 28 29 30 31 32 33 34 35 36 37 38 39 40 41 42 43 44 45 46 47 48 49 50
512
ASUS43 KFSD 251110
RWRSD

WEATHER ROUNDUP FOR SOUTH DAKOTA
NATIONAL WEATHER SERVICE SIOUX FALLS SD
600 AM CDT SUN JUN 25 2017

NOTE: "FAIR" INDICATES FEW OR NO CLOUDS BELOW 12,000 FEET WITH NO
SIGNIFICANT WEATHER AND/OR OBSTRUCTIONS TO VISIBILITY.


SDZ001>005-009-010-012>017-251200-
NORTHWEST AND NORTH CENTRAL SOUTH DAKOTA

CITY           SKY/WX    TMP DP  RH WIND       PRES   REMARKS
BUFFALO          N/A     48  32  53 SW6       30.27S
FAITH            N/A     44  35  70 SW8       30.33S
MOBRIDGE       CLEAR     41  36  82 N3        30.28R
$$

SDZ012>016-024>037-041>051-057-063-072>074-251200-
SOUTHWEST AND SOUTH CENTRAL SOUTH DAKOTA

CITY           SKY/WX    TMP DP  RH WIND       PRES   REMARKS
RAPID CTY ARPT MOCLDY    46  33  60 CALM      30.36S
PIERRE         NOT AVBL
CUSTER         CLEAR     38  27  64 NW3       30.41R
ELLSWORTH AFB  MOCLDY    48  32  54 SW5       30.35S
PHILIP         CLEAR     40  34  79 W6        30.34F
PINE RIDGE     CLOUDY    46  38  73 NE5       30.37S
SPEARFISH      FAIR      43  34  70 S5        30.35S
WINNER         FAIR      44  37  76 SW7       30.35R
$$

SDZ004>011-016>023-039-040-251200-
NORTHEAST SOUTH DAKOTA

CITY           SKY/WX    TMP DP  RH WIND       PRES   REMARKS
ABERDEEN       CLEAR     43  41  93 W5        30.28R
WATERTOWN      CLEAR     49  47  93 NW9       30.24R
BROOKINGS      CLOUDY    48  45  89 NW8       30.26R
SISSETON         N/A     46  41  82 NW7       30.23R
$$

SDZ017-020-022-023-036>040-048>070-251200-
SOUTHEAST SOUTH DAKOTA

CITY           SKY/WX    TMP DP  RH WIND       PRES   REMARKS
SIOUX FALLS    PTCLDY    47  45  93 W8        30.27R
HURON          CLEAR     45  42  89 W10       30.30R
CHAMBERLAIN    CLEAR     46  43  92 W7        30.34R
YANKTON        CLEAR     48  42  80 W7        30.31R
$$

ABBREVIATIONS USED IN REMARKS
   TC - TEMPERATURE IN CELSIUS
  WCI - WIND CHILL INDEX
   HX - HEAT INDEX
  VSB - VISIBILITY





USA.gov is the U.S. government's official web portal to all federal, state and local government web resources and services.